When you browse on this site, cookies collect data to enhance your experience and personalize the content and advertising you see.
Visit our Privacy Policy to learn more. By continuing to use the site, you agree to this use of cookies and data.
  • En España
  • Lista de países
  • Para 7 días
  • Temperatura del agua
  • El tiempo en el mapa
  • Informadores
  • user-avatar
    Iniciar sesión

    Tiempo cada hora Heidelberg

    Hoy, 1 Junio, Lunes

    Tiempo Temperatura Precipitaciones Viento Presión Humedad
    00:00 +11°C° 0 mm 3 mps 736 mmHg 72%
    01:00 +12°C° 0 mm 2 mps 736 mmHg 76%
    02:00 +10°C° 0 mm 2 mps 736 mmHg 79%
    03:00 +10°C° 0 mm 2 mps 736 mmHg 82%
    04:00 +9°C° 0 mm 2 mps 736 mmHg 85%
    05:00 +12°C° 0 mm 2 mps 736 mmHg 81%
    06:00 +13°C° 0 mm 2 mps 736 mmHg 77%
    07:00 +14°C° 0 mm 2 mps 736 mmHg 73%
    08:00 +16°C° 0 mm 2 mps 736 mmHg 68%
    09:00 +18°C° 0 mm 3 mps 736 mmHg 62%
    10:00 +20°C° 0 mm 3 mps 736 mmHg 56%
    11:00 +21°C° 0 mm 3 mps 736 mmHg 53%
    12:00 +22°C° 0 mm 4 mps 736 mmHg 50%
    13:00 +23°C° 0 mm 4 mps 736 mmHg 46%
    14:00 +23°C° 0 mm 4 mps 736 mmHg 46%
    15:00 +25°C° 0 mm 3 mps 736 mmHg 46%
    16:00 +25°C° 0 mm 3 mps 736 mmHg 46%
    17:00 +24°C° 0 mm 3 mps 735 mmHg 50%
    18:00 +22°C° 0 mm 3 mps 735 mmHg 55%
    19:00 +21°C° 0 mm 2 mps 735 mmHg 59%
    20:00 +19°C° 0 mm 3 mps 735 mmHg 62%
    21:00 +18°C° 0 mm 3 mps 735 mmHg 65%
    22:00 +16°C° 0 mm 3 mps 736 mmHg 68%
    23:00 +16°C° 0 mm 3 mps 735 mmHg 72%

    Mañana, 2 Junio, Martes

    Tiempo Temperatura Precipitaciones Viento Presión Humedad
    00:00 +14°C° 0 mm 3 mps 735 mmHg 76%
    01:00 +14°C° 0 mm 2 mps 735 mmHg 80%
    02:00 +13°C° 0 mm 2 mps 735 mmHg 82%
    03:00 +13°C° 0 mm 2 mps 735 mmHg 84%
    04:00 +12°C° 0 mm 2 mps 735 mmHg 85%
    05:00 +13°C° 0 mm 2 mps 735 mmHg 81%
    06:00 +14°C° 0 mm 2 mps 735 mmHg 76%
    07:00 +15°C° 0 mm 2 mps 735 mmHg 72%
    08:00 +17°C° 0 mm 2 mps 735 mmHg 66%
    09:00 +19°C° 0 mm 2 mps 735 mmHg 59%
    10:00 +21°C° 0 mm 3 mps 735 mmHg 53%
    11:00 +22°C° 0 mm 3 mps 735 mmHg 49%
    12:00 +24°C° 0 mm 3 mps 735 mmHg 46%
    13:00 +24°C° 0 mm 3 mps 734 mmHg 42%
    14:00 +25°C° 0 mm 3 mps 734 mmHg 43%
    15:00 +25°C° 0 mm 3 mps 733 mmHg 43%
    16:00 +25°C° 0 mm 3 mps 733 mmHg 44%
    17:00 +24°C° 0 mm 3 mps 732 mmHg 49%
    18:00 +23°C° 0 mm 2 mps 732 mmHg 55%
    19:00 +21°C° 0 mm 2 mps 731 mmHg 61%
    20:00 +19°C° 0 mm 2 mps 731 mmHg 63%
    21:00 +18°C° 0 mm 2 mps 731 mmHg 66%
    22:00 +16°C° 0 mm 1 mps 731 mmHg 68%
    23:00 +15°C° 0 mm 1 mps 731 mmHg 70%

    Pasado mañana, 3 Junio, Miércoles

    Tiempo Temperatura Precipitaciones Viento Presión Humedad
    00:00 +15°C° 0 mm 1 mps 730 mmHg 72%
    01:00 +14°C° 0 mm 1 mps 730 mmHg 74%
    02:00 +14°C° 0 mm 1 mps 729 mmHg 76%
    03:00 +13°C° 0 mm 1 mps 729 mmHg 78%
    04:00 +13°C° 0 mm 1 mps 729 mmHg 80%
    05:00 +14°C° 0 mm 1 mps 728 mmHg 76%
    06:00 +15°C° 0 mm 1 mps 728 mmHg 72%
    07:00 +16°C° 0 mm 1 mps 728 mmHg 69%
    08:00 +19°C° 0 mm 1 mps 728 mmHg 63%
    09:00 +21°C° 0 mm 1 mps 727 mmHg 57%
    10:00 +23°C° 0 mm 1 mps 727 mmHg 51%
    11:00 +24°C° 0 mm 2 mps 727 mmHg 47%
    12:00 +25°C° 0 mm 2 mps 726 mmHg 43%
    13:00 +26°C° 0 mm 2 mps 726 mmHg 39%
    14:00 +26°C° 0 mm 2 mps 725 mmHg 38%
    15:00 +26°C° 0 mm 2 mps 724 mmHg 37%
    16:00 +27°C° 0 mm 2 mps 724 mmHg 37%
    17:00 +25°C° 0 mm 2 mps 723 mmHg 44%
    18:00 +24°C° 0 mm 2 mps 723 mmHg 52%
    19:00 +23°C° 0 mm 2 mps 722 mmHg 59%
    20:00 +21°C° 0.1 mm 2 mps 722 mmHg 62%
    21:00 +19°C° 0.1 mm 2 mps 722 mmHg 65%
    22:00 +18°C° 0.1 mm 2 mps 722 mmHg 68%
    23:00 +17°C° 0.7 mm 2 mps 722 mmHg 73%

    4 Junio, Jueves

    Tiempo Temperatura Precipitaciones Viento Presión Humedad
    00:00 +17°C° 0.7 mm 2 mps 721 mmHg 77%
    01:00 +16°C° 0.7 mm 2 mps 721 mmHg 82%
    02:00 +16°C° 0.7 mm 2 mps 721 mmHg 85%
    03:00 +15°C° 0.7 mm 2 mps 720 mmHg 88%
    04:00 +15°C° 0.7 mm 2 mps 720 mmHg 91%
    05:00 +16°C° 0.5 mm 3 mps 720 mmHg 89%
    06:00 +16°C° 0.5 mm 3 mps 719 mmHg 87%
    07:00 +16°C° 0.5 mm 3 mps 719 mmHg 85%
    08:00 +17°C° 0.5 mm 3 mps 719 mmHg 82%
    09:00 +17°C° 0.5 mm 4 mps 719 mmHg 79%
    10:00 +18°C° 0.5 mm 4 mps 719 mmHg 76%
    11:00 +18°C° 0.7 mm 4 mps 719 mmHg 75%
    12:00 +19°C° 0.7 mm 4 mps 718 mmHg 73%
    13:00 +19°C° 0.7 mm 4 mps 718 mmHg 71%
    14:00 +19°C° 0.8 mm 3 mps 718 mmHg 71%
    15:00 +19°C° 0.8 mm 3 mps 718 mmHg 71%
    16:00 +18°C° 0.8 mm 3 mps 718 mmHg 70%
    17:00 +17°C° 0.7 mm 3 mps 718 mmHg 74%
    18:00 +16°C° 0.7 mm 3 mps 719 mmHg 78%
    19:00 +14°C° 0.7 mm 4 mps 719 mmHg 81%
    20:00 +13°C° 0.2 mm 3 mps 719 mmHg 81%
    21:00 +12°C° 0.2 mm 3 mps 719 mmHg 81%
    22:00 +11°C° 0.2 mm 3 mps 720 mmHg 82%
    23:00 +11°C° 0 mm 3 mps 720 mmHg 82%

    5 Junio, Viernes

    Tiempo Temperatura Precipitaciones Viento Presión Humedad
    00:00 +10°C° 0 mm 3 mps 720 mmHg 83%
    01:00 +10°C° 0 mm 3 mps 720 mmHg 84%
    02:00 +9°C° 0 mm 3 mps 721 mmHg 85%
    03:00 +8°C° 0 mm 3 mps 721 mmHg 85%
    04:00 +7°C° 0 mm 2 mps 721 mmHg 86%
    05:00 +8°C° 0 mm 3 mps 722 mmHg 82%
    06:00 +9°C° 0 mm 3 mps 722 mmHg 78%
    07:00 +9°C° 0 mm 3 mps 723 mmHg 74%
    08:00 +11°C° 0 mm 3 mps 723 mmHg 67%
    09:00 +12°C° 0 mm 3 mps 723 mmHg 59%
    10:00 +13°C° 0 mm 4 mps 723 mmHg 52%
    11:00 +14°C° 0 mm 4 mps 723 mmHg 49%
    12:00 +15°C° 0 mm 4 mps 723 mmHg 45%
    13:00 +17°C° 0 mm 4 mps 723 mmHg 42%
    14:00 +17°C° 0.1 mm 4 mps 723 mmHg 45%
    15:00 +16°C° 0.1 mm 5 mps 723 mmHg 49%
    16:00 +16°C° 0.1 mm 5 mps 723 mmHg 52%
    17:00 +15°C° 0.2 mm 4 mps 724 mmHg 58%
    18:00 +14°C° 0.2 mm 4 mps 724 mmHg 64%
    19:00 +13°C° 0.2 mm 4 mps 724 mmHg 70%
    20:00 +12°C° 0.1 mm 4 mps 724 mmHg 75%
    21:00 +11°C° 0.1 mm 3 mps 725 mmHg 79%
    22:00 +10°C° 0.1 mm 3 mps 725 mmHg 83%
    23:00 +10°C° 0.1 mm 4 mps 725 mmHg 84%

    6 Junio, Sábado

    Tiempo Temperatura Precipitaciones Viento Presión Humedad
    00:00 +10°C° 0.1 mm 4 mps 725 mmHg 85%
    01:00 +10°C° 0.1 mm 4 mps 725 mmHg 85%
    02:00 +10°C° 0.2 mm 4 mps 725 mmHg 86%
    03:00 +10°C° 0.2 mm 4 mps 725 mmHg 87%
    04:00 +11°C° 0.2 mm 4 mps 725 mmHg 88%
    05:00 +10°C° 0.1 mm 5 mps 725 mmHg 88%
    06:00 +10°C° 0.1 mm 5 mps 725 mmHg 88%
    07:00 +10°C° 0.1 mm 5 mps 725 mmHg 88%
    08:00 +10°C° 0.3 mm 5 mps 725 mmHg 87%
    09:00 +12°C° 0.3 mm 5 mps 725 mmHg 87%
    10:00 +12°C° 0.3 mm 5 mps 725 mmHg 87%
    11:00 +13°C° 0.1 mm 6 mps 725 mmHg 84%
    12:00 +13°C° 0.1 mm 6 mps 725 mmHg 82%
    13:00 +14°C° 0.1 mm 6 mps 725 mmHg 79%
    14:00 +14°C° 0.1 mm 6 mps 725 mmHg 76%
    15:00 +15°C° 0.1 mm 6 mps 725 mmHg 72%
    16:00 +16°C° 0.1 mm 6 mps 725 mmHg 68%
    17:00 +16°C° 0.1 mm 6 mps 725 mmHg 69%
    18:00 +15°C° 0.1 mm 5 mps 725 mmHg 70%
    19:00 +15°C° 0.1 mm 5 mps 725 mmHg 71%
    20:00 +14°C° 0.1 mm 4 mps 725 mmHg 74%
    21:00 +14°C° 0.1 mm 3 mps 726 mmHg 76%
    22:00 +13°C° 0.1 mm 3 mps 726 mmHg 79%
    23:00 +13°C° 0.6 mm 3 mps 725 mmHg 83%
    Mostrar más